sat.trackr.live / text

‹ back to catalog

STARLINK-2525

NORAD 48482 · 2021-040BG

PAYLOAD ACTIVE UNKNOWN

§ Identity

Operator
Country
US
Launch date
2021-05-09
Launch site
AFETR
Launch vehicle
Mass (kg)
RCS (m²)

Purposes: comms

External: N2YO · Heavens-Above · Gunter

§ Orbital elements

Epoch: 2026-05-25T03:28:52.885056Z

Period
94.01 min
Inclination
53.1595°
Eccentricity
0.0001090
Mean motion
15.31691714 rev/d
Perigee alt
470.0 km
Apogee alt
471.5 km
Semi-major
6,848.9 km
B*
2.1078e-5
RAAN
198.3134°
Arg perigee
66.6516°
Mean anomaly
293.4600°
Rev number
27,817

§ Raw data

STARLINK-25251 48482U 21040BG  26145.14505654  .00000289  00000+0  21078-4 0  99912 48482  53.1595 198.3134 0001090  66.6516 293.4600 15.31691714278172

JSON: /api/v1/satellites/48482 · /tle

For live sub-satellite position, see the globe view (requires WebGL).

§ Visibility from observer

Set your observer location to see the next 7 days of passes ≥ 10°. The values pass through the URL so the page stays shareable.

No JS? Fill the form by hand. The geolocation button needs JavaScript.